Home > Weather > Rothesay > Past weeks

Flag for Canada Past Weather in Rothesay, New Brunswick, Canada — Yesterday and Last 2 Weeks

Now
77 °F

Partly sunny.


Feels Like: 79 °F
Forecast: 61 / 80 °F
Wind: 9 mph from Northwest

Location: Saint John

Current Time: Jul 30, 2016 at 1:55:40 PM

Latest Report: Jul 30, 2016 at 1:00 PM


Visibility: 15 mi

Pressure: 29.96 "Hg

Humidity: 54%

Dew Point: 59 °F

Location of RothesayLocation

Past Weather in Rothesay — Graph

°F

Rothesay Temperature Yesterday

Maximum temperature yesterday: 73 °F (at 3:00 PM)
Minimum temperature yesterday: 61 °F (at 2:00 AM)
Average temperature yesterday: 65 °F

High & Low Weather Summary for the Past Weeks

 TemperatureHumidityPressure
High86 °F (Jul 24, 4:00 PM)100% (Jul 15, 9:00 PM)30.17 "Hg (Jul 15, 9:00 PM)
Low48 °F (Jul 21, 6:00 AM)38% (Jul 19, 5:00 PM)29.65 "Hg (Jul 22, 7:00 PM)
Average66 °F84%29.89 "Hg
* Reported Jul 15 12:00 PM — Jul 30 12:00 PM, Rothesay, Weather by CustomWeather, © 2016

Note: Actual official high and low records may vary slightly from our data, if they occured in-between our weather recording intervals... More about our weather records

Advertising

Rothesay Weather History for the Previous 24 Hours

Scroll right to see more
 ConditionsComfort  
Time TempWeatherWind HumidityBarometerVisibility
12:00 PM
Sat, Jul 30
79 °FBroken clouds.9 mph51%29.96 "Hg15 mi
11:00 AM75 °FPassing clouds.8 mph61%29.96 "Hg15 mi
10:00 AM73 °FPassing clouds.8 mph65%29.95 "Hg15 mi
9:00 AM70 °FPassing clouds.9 mph78%29.94 "Hg15 mi
8:00 AM66 °FBroken clouds.10 mph94%29.93 "Hg15 mi
7:00 AM64 °FFog.10 mph100%29.91 "Hg1 mi
6:00 AM64 °FFog.9 mph100%29.89 "Hg1 mi
5:00 AM61 °FPassing clouds.5 mph100%29.88 "Hg15 mi
4:00 AM64 °FPassing clouds.5 mph100%29.87 "Hg15 mi
3:00 AM63 °FOvercast.No wind100%29.87 "Hg15 mi
2:00 AM63 °FOvercast.2 mph100%29.88 "Hg15 mi
1:00 AM63 °FLow clouds.No wind100%29.89 "Hg15 mi
12:00 AM63 °FMostly cloudy.2 mph100%29.89 "Hg10 mi
11:00 PM
Fri, Jul 29
63 °FFog.3 mph100%29.90 "Hg4 mi
10:00 PM63 °FFog.3 mph94%29.90 "Hg3 mi
9:00 PM66 °FMostly cloudy.5 mph94%29.89 "Hg15 mi
8:00 PM68 °FMore clouds than sun.6 mph94%29.88 "Hg15 mi
7:00 PM72 °FOvercast.6 mph88%29.88 "Hg15 mi
6:00 PM72 °FOvercast.3 mph83%29.88 "Hg15 mi
5:00 PM73 °FOvercast.3 mph78%29.88 "Hg15 mi
4:00 PM73 °FMore clouds than sun.6 mph78%29.90 "Hg12 mi
3:00 PM73 °FMore clouds than sun.6 mph83%29.90 "Hg10 mi
2:00 PM72 °FFog.2 mph83%29.90 "Hg6 mi
1:00 PM70 °FFog.5 mph88%29.92 "Hg6 mi
Weather by CustomWeather, © 2016

See weather overviewHow to use our weather pages